1486764000.06,40037,10.31,73814.0,-8.97,-13.07,-12.89,0,*51
1486764001.31,40038,10.38,73816.5,-8.95,-12.83,-12.89,0,*51
1486764002.58,40039,10.38,73820.5,-8.97,-12.75,-12.79,0,*54
1486764003.81,40040,10.31,73814.3,-8.97,-12.93,-13.01,0,*5C
1486764005.07,40041,10.38,73814.8,-8.95,-12.83,-12.89,0,*5F
1486764006.33,40042,10.38,73812.5,-8.99,-12.79,-12.89,0,*55
1486764007.59,40043,10.31,73814.3,-8.97,-12.65,-12.65,0,*55
1486764008.85,40044,10.31,73810.5,-8.97,-12.75,-12.61,0,*57
1486764010.1,40045,10.31,73808.0,-8.97,-12.61,-12.65,0,*57
1486764011.36,40046,10.31,73808.3,-8.97,-12.65,-12.65,0,*50
1486764012.62,40047,10.31,73810.8,-8.97,-12.79,-12.65,0,*5C
1486764013.88,40048,10.31,73810.3,-8.97,-12.57,-12.35,0,*5A
1486764015.14,40049,10.31,73812.0,-8.97,-12.61,-12.35,0,*5E
1486764016.38,40050,10.31,73808.3,-8.97,-12.65,-12.43,0,*53
1486764017.64,40051,10.31,73808.5,-8.97,-12.57,-12.35,0,*52
1486764018.91,40052,10.31,73810.3,-8.97,-12.65,-12.75,0,*54
1486764020.19,40053,10.31,73810.8,-8.95,-12.61,-12.71,0,*57
1486764021.46,40054,10.31,73810.8,-8.95,-12.89,-12.75,0,*52
1486764022.74,40055,10.31,73812.3,-8.95,-12.75,-12.83,0,*59
1486764024.01,40056,10.38,73816.0,-8.93,-12.75,-12.71,0,*51
1486764025.23,40057,10.31,73810.8,-8.93,-12.89,-12.89,0,*54
1486764026.44,40058,10.31,73810.0,-8.93,-12.89,-12.97,0,*54
1486764027.7,40059,10.31,73810.3,-8.95,-12.83,-12.97,0,*59
1486764028.93,40060,10.38,73812.5,-8.93,-12.89,-13.01,0,*51
1486764030.16,40061,10.31,73806.0,-8.93,-12.89,-13.01,0,*50
1486764031.39,40062,10.38,73812.0,-8.95,-12.89,-12.97,0,*5B
1486764032.62,40063,10.31,73808.5,-8.95,-13.11,-13.15,0,*51
1486764033.83,40064,10.31,73810.5,-8.93,-13.11,-13.15,0,*50
1486764035.09,40065,10.31,73808.5,-8.95,-12.97,-13.01,0,*5D
1486764036.34,40066,10.31,73812.0,-8.95,-12.97,-13.01,0,*5E
1486764037.55,40067,10.31,73810.5,-8.93,-13.11,-13.11,0,*57
1486764038.79,40068,10.31,73810.0,-8.95,-13.11,-13.11,0,*5E
1486764040.02,40069,10.31,73810.0,-8.95,-13.11,-13.23,0,*5E
1486764041.25,40070,10.31,73810.5,-8.95,-13.15,-13.15,0,*57
1486764042.48,40071,10.31,73810.8,-8.95,-13.11,-13.11,0,*56
1486764043.74,40072,10.31,73810.5,-8.95,-13.01,-13.11,0,*54
1486764044.95,40073,10.31,73814.0,-8.93,-13.11,-13.15,0,*56
1486764046.15,40074,10.31,73814.5,-8.93,-13.11,-13.15,0,*51
1486764047.36,40075,10.31,73810.5,-8.93,-13.15,-13.15,0,*54
1486764048.58,40076,10.31,73808.3,-8.95,-13.15,-13.15,0,*51
1486764049.79,40077,10.31,73810.5,-8.93,-13.15,-13.23,0,*53
1486764051.0,40078,10.31,73808.5,-8.93,-13.11,-13.23,0,*58
1486764052.21,40079,10.38,73814.0,-8.93,-13.11,-13.23,0,*59
1486764053.44,40080,10.31,73812.8,-8.95,-13.15,-13.23,0,*5D
1486764054.67,40081,10.31,73810.3,-8.95,-13.15,-13.15,0,*59
1486764055.88,40082,10.31,73812.0,-8.93,-13.15,-13.23,0,*59
1486764057.11,40083,10.31,73812.8,-8.95,-13.15,-13.23,0,*5E
1486764058.32,40084,10.31,73810.8,-8.93,-13.15,-13.23,0,*5F
1486764059.58,40085,10.31,73814.0,-8.95,-13.23,-13.29,0,*57
1486764060.83,40086,10.31,73812.5,-8.95,-13.15,-13.29,0,*51
1486764062.08,40087,10.31,73816.5,-8.95,-13.15,-13.29,0,*50
1486764063.34,40088,10.31,73816.3,-8.95,-13.23,-13.37,0,*55
1486764064.6,40089,10.31,73814.0,-8.95,-13.23,-13.29,0,*5B
1486764065.84,40090,10.31,73812.0,-8.93,-13.23,-13.37,0,*5A
1486764067.09,40091,10.31,73818.8,-8.95,-13.29,-13.43,0,*54
1486764068.35,40092,10.31,73816.3,-8.95,-13.37,-13.43,0,*58
1486764069.6,40093,10.31,73814.3,-8.95,-13.37,-13.47,0,*5D
1486764070.86,40094,10.31,73816.0,-8.95,-13.37,-13.43,0,*5E
1486764072.09,40095,10.31,73818.3,-8.95,-13.43,-13.43,0,*5C
1486764073.37,40096,10.31,73814.0,-8.95,-13.29,-13.37,0,*50
1486764074.63,40097,10.31,73814.5,-8.95,-13.23,-13.29,0,*54
1486764075.89,40098,10.31,73814.3,-8.95,-13.15,-13.29,0,*5E
1486764077.14,40099,10.31,73814.8,-8.95,-13.15,-13.29,0,*5F
1486764078.39,40100,10.31,73814.5,-8.95,-13.15,-13.29,0,*5E
1486764079.65,40101,10.31,73814.5,-8.95,-13.15,-13.29,0,*5F
1486764080.9,40102,10.31,73818.5,-8.95,-13.15,-13.29,0,*5C
1486764082.15,40103,10.31,73814.3,-8.95,-13.15,-13.29,0,*5D
1486764083.41,40104,10.31,73818.0,-8.97,-13.29,-13.33,0,*5C
1486764084.68,40105,10.31,73814.8,-8.95,-13.23,-13.29,0,*5E
1486764085.96,40106,10.31,73816.8,-8.95,-13.29,-13.29,0,*57
1486764087.22,40107,10.31,73814.0,-8.97,-13.33,-13.33,0,*54
1486764088.48,40108,10.31,73818.8,-8.95,-13.23,-13.29,0,*53
1486764089.76,40109,10.31,73812.5,-8.95,-13.29,-13.37,0,*57
1486764091.0,40110,10.31,73814.5,-8.93,-13.23,-13.29,0,*5C
1486764092.26,40111,10.31,73812.5,-8.95,-13.23,-13.29,0,*5B
1486764093.5,40112,10.31,73814.5,-8.93,-13.23,-13.29,0,*5E
1486764094.75,40113,10.31,73814.8,-8.95,-13.15,-13.29,0,*5C
1486764096.01,40114,10.31,73814.8,-8.97,-13.29,-13.33,0,*5D
1486764097.27,40115,10.31,73814.0,-8.95,-13.23,-13.37,0,*50
1486764098.53,40116,10.31,73812.0,-8.95,-13.23,-13.29,0,*5C
1486764099.79,40117,10.31,73812.5,-8.95,-13.11,-13.29,0,*5C
1486764101.02,40118,10.31,73814.5,-8.95,-13.11,-13.23,0,*59
1486764102.25,40119,10.38,73816.3,-8.95,-13.15,-13.15,0,*59
1486764103.48,40120,10.31,73810.5,-8.95,-13.11,-13.23,0,*52
1486764104.73,40121,10.31,73814.8,-8.97,-13.01,-13.19,0,*59
1486764105.93,40122,10.31,73818.3,-8.97,-13.07,-13.15,0,*50
1486764107.14,40123,10.31,73814.5,-8.97,-13.07,-13.15,0,*51
1486764108.36,40124,10.31,73814.3,-8.97,-13.07,-13.19,0,*5A
1486764109.61,40125,10.31,73812.0,-8.95,-13.01,-13.15,0,*53
1486764110.85,40126,10.31,73818.5,-8.93,-13.01,-13.15,0,*56
1486764112.08,40127,10.31,73816.5,-8.95,-12.97,-12.97,0,*54
1486764113.34,40128,10.31,73816.5,-8.95,-12.83,-12.97,0,*5E
1486764114.6,40129,10.31,73816.3,-8.95,-12.89,-13.01,0,*5B
1486764115.86,40130,10.31,73816.0,-8.95,-13.01,-13.11,0,*53
1486764117.09,40131,10.31,73814.0,-8.95,-13.11,-13.11,0,*53
1486764118.32,40132,10.31,73812.5,-8.95,-13.11,-13.23,0,*51
1486764119.55,40133,10.31,73812.8,-8.95,-13.11,-13.15,0,*55
1486764120.78,40134,10.38,73816.5,-8.95,-13.11,-13.15,0,*52
1486764122.01,40135,10.31,73814.5,-8.95,-13.11,-13.15,0,*53
1486764123.22,40136,10.31,73818.0,-8.93,-13.11,-13.23,0,*53
1486764124.45,40137,10.31,73812.5,-8.97,-13.15,-13.29,0,*58
1486764125.68,40138,10.31,73814.5,-8.95,-13.11,-13.15,0,*5E
1486764126.97,40139,10.31,73818.0,-8.95,-13.01,-13.01,0,*5B
1486764128.17,40140,10.31,73816.8,-8.97,-12.93,-13.07,0,*5B
1486764129.38,40141,10.31,73818.5,-8.97,-13.15,-13.15,0,*56
1486764130.61,40142,10.31,73814.3,-8.95,-13.11,-13.15,0,*53
1486764131.84,40143,10.31,73818.0,-8.95,-13.11,-13.15,0,*52
1486764133.07,40144,10.31,73814.5,-8.95,-13.11,-13.15,0,*55
1486764134.29,40145,10.31,73816.5,-8.95,-13.15,-13.15,0,*50
1486764135.55,40146,10.31,73816.8,-8.95,-13.01,-13.11,0,*52
1486764136.79,40147,10.31,73816.5,-8.97,-13.01,-13.07,0,*56
1486764138.04,40148,10.31,73816.3,-8.95,-12.89,-13.01,0,*5C
1486764139.3,40149,10.31,73812.5,-8.95,-12.97,-13.01,0,*52
1486764140.56,40150,10.31,73816.3,-8.95,-12.75,-12.89,0,*57
1486764141.82,40151,10.31,73814.5,-8.95,-12.89,-13.01,0,*54
1486764143.05,40152,10.31,73812.3,-8.95,-12.89,-12.89,0,*56
1486764144.34,40153,10.31,73812.8,-8.95,-12.83,-12.75,0,*5E
1486764145.63,40154,10.31,73812.3,-8.95,-12.75,-12.83,0,*59
1486764146.89,40155,10.31,73810.8,-8.95,-12.75,-12.89,0,*52
1486764148.18,40156,10.31,73814.0,-8.95,-12.75,-12.71,0,*56
1486764149.47,40157,10.31,73818.0,-8.95,-12.71,-12.71,0,*53
1486764150.75,40158,10.31,73810.8,-8.93,-12.75,-12.71,0,*5E
1486764152.01,40159,10.31,73814.3,-8.93,-12.71,-12.71,0,*5B
1486764153.3,40160,10.31,73814.5,-8.95,-12.61,-12.83,0,*5B
1486764154.58,40161,10.31,73814.3,-8.95,-12.83,-12.75,0,*5F
1486764155.86,40162,10.31,73814.8,-8.95,-12.57,-12.61,0,*50
1486764157.14,40163,10.31,73814.5,-8.95,-12.61,-12.61,0,*54
1486764158.4,40164,10.31,73814.0,-8.93,-12.61,-12.61,0,*55
1486764159.69,40165,10.31,73818.0,-8.95,-12.75,-12.83,0,*5B
1486764160.92,40166,10.31,73818.0,-8.95,-12.89,-12.89,0,*51
1486764162.16,40167,10.38,73818.3,-8.95,-12.89,-12.97,0,*5F
1486764163.42,40168,10.31,73816.3,-8.95,-12.83,-12.97,0,*5A
1486764164.65,40169,10.31,73818.8,-8.93,-12.83,-12.89,0,*52
1486764165.91,40170,10.31,73814.5,-8.95,-12.83,-12.89,0,*5C
1486764167.17,40171,10.31,73812.0,-8.95,-12.83,-12.89,0,*5D
1486764168.42,40172,10.31,73814.0,-8.95,-12.83,-12.97,0,*51
1486764169.66,40173,10.31,73814.8,-8.93,-12.75,-12.97,0,*5F
1486764170.91,40174,10.31,73814.8,-8.93,-12.75,-12.89,0,*57
1486764172.16,40175,10.31,73812.8,-8.95,-12.83,-12.97,0,*56
1486764173.43,40176,10.31,73814.0,-8.93,-12.75,-12.83,0,*5F
1486764174.71,40177,10.31,73816.3,-8.95,-12.71,-12.83,0,*5C
1486764176.0,40178,10.31,73814.5,-8.95,-12.75,-12.83,0,*57
1486764177.24,40179,10.31,73812.8,-8.95,-12.89,-12.89,0,*5F
1486764178.47,40180,10.31,73816.0,-8.93,-12.83,-12.89,0,*55
1486764179.75,40181,10.31,73812.5,-8.95,-12.61,-12.75,0,*5D
1486764181.04,40182,10.31,73812.5,-8.95,-12.75,-12.83,0,*52
1486764182.28,40183,10.31,73812.8,-8.93,-12.75,-12.97,0,*50
1486764183.54,40184,10.31,73812.5,-8.95,-12.97,-13.01,0,*53
1486764184.74,40185,10.31,73814.5,-8.93,-13.15,-13.15,0,*5A
1486764185.98,40186,10.31,73812.8,-8.95,-12.97,-13.11,0,*50
1486764187.23,40187,10.31,73812.8,-8.95,-12.97,-13.01,0,*50
1486764188.47,40188,10.31,73812.3,-8.95,-12.97,-12.89,0,*5E
1486764189.71,40189,10.31,73812.3,-8.93,-12.83,-12.89,0,*5C
1486764190.94,40190,10.31,73812.5,-8.93,-12.83,-12.97,0,*5B
1486764192.15,40191,10.31,73812.8,-8.93,-12.89,-12.97,0,*50
1486764193.39,40192,10.31,73812.3,-8.93,-12.83,-12.89,0,*56
1486764194.65,40193,10.31,73812.3,-8.93,-12.71,-12.75,0,*59
1486764195.92,40194,10.31,73814.5,-8.93,-12.71,-12.71,0,*5A
1486764197.18,40195,10.31,73814.3,-8.93,-12.83,-12.75,0,*52
1486764198.46,40196,10.31,73808.8,-8.95,-12.83,-12.83,0,*5E
1486764199.7,40197,10.31,73814.5,-8.95,-12.89,-12.97,0,*50
1486764200.91,40198,10.31,73808.8,-8.93,-12.89,-12.89,0,*56
1486764202.17,40199,10.31,73812.8,-8.93,-12.83,-12.75,0,*5E
1486764203.44,40200,10.31,73814.3,-8.93,-12.75,-12.75,0,*54
1486764204.7,40201,10.31,73812.8,-8.93,-12.83,-12.83,0,*55
1486764205.95,40202,10.31,73814.5,-8.95,-12.83,-12.97,0,*55
1486764207.17,40203,10.31,73812.5,-8.93,-12.89,-12.89,0,*57
1486764208.4,40204,10.31,73814.8,-8.93,-12.83,-12.89,0,*5A
1486764209.61,40205,10.31,73810.8,-8.93,-12.89,-12.89,0,*51
1486764210.85,40206,10.31,73816.5,-8.93,-12.83,-12.89,0,*58
1486764212.08,40207,10.31,73814.3,-8.93,-13.01,-13.15,0,*56
1486764213.32,40208,10.31,73816.5,-8.93,-13.01,-13.23,0,*5C
1486764214.53,40209,10.31,73816.8,-8.93,-13.11,-13.15,0,*59
1486764215.74,40210,10.31,73816.3,-8.93,-13.11,-13.11,0,*55
1486764217.0,40211,10.31,73816.3,-8.95,-13.01,-13.11,0,*53
1486764218.2,40212,10.31,73818.0,-8.93,-13.15,-13.11,0,*53
1486764219.41,40213,10.31,73818.8,-8.93,-13.11,-13.15,0,*52
1486764220.64,40214,10.31,73820.0,-8.95,-13.15,-13.23,0,*52
1486764221.85,40215,10.31,73814.3,-8.93,-13.11,-13.15,0,*54
1486764223.08,40216,10.31,73816.8,-8.93,-13.01,-13.15,0,*56
1486764224.32,40217,10.31,73818.8,-8.93,-13.01,-13.11,0,*53
1486764225.53,40218,10.31,73814.8,-8.93,-13.11,-13.11,0,*5D
1486764226.75,40219,10.31,73818.3,-8.95,-13.15,-13.15,0,*5A
1486764227.96,40220,10.31,73812.8,-8.93,-13.11,-13.15,0,*52
1486764229.17,40221,10.31,73818.0,-8.93,-13.11,-13.11,0,*57
1486764230.43,40222,10.31,73818.5,-8.95,-12.97,-13.01,0,*5C
1486764231.66,40223,10.31,73816.3,-8.93,-12.97,-13.01,0,*5B
1486764232.89,40224,10.31,73816.5,-8.93,-12.97,-13.01,0,*5C
1486764234.13,40225,10.31,73816.8,-8.93,-13.01,-13.11,0,*52
1486764235.39,40226,10.31,73816.5,-8.95,-13.01,-13.11,0,*57
1486764236.63,40227,10.31,73818.5,-8.95,-13.11,-13.23,0,*56
1486764237.84,40228,10.31,73816.0,-8.93,-13.11,-13.23,0,*5F
1486764239.07,40229,10.31,73816.3,-8.95,-13.11,-13.15,0,*5D
1486764240.27,40230,10.31,73818.3,-8.93,-13.15,-13.15,0,*57
1486764241.5,40231,10.31,73818.8,-8.95,-13.15,-13.15,0,*50
1486764242.7,40232,10.31,73818.0,-8.93,-13.15,-13.23,0,*50
1486764243.91,40233,10.31,73814.5,-8.93,-13.15,-13.23,0,*51
1486764245.14,40234,10.31,73818.3,-8.95,-13.11,-13.15,0,*51
1486764246.38,40235,10.31,73818.3,-8.93,-13.01,-13.23,0,*52
1486764247.62,40236,10.31,73818.3,-8.93,-13.01,-13.11,0,*50
1486764248.88,40237,10.31,73818.5,-8.95,-13.01,-13.11,0,*57
1486764250.14,40238,10.31,73816.5,-8.95,-13.01,-13.11,0,*58
1486764251.37,40239,10.31,73818.8,-8.93,-13.01,-13.15,0,*5B
1486764252.61,40240,10.31,73818.5,-8.95,-12.97,-13.11,0,*59
1486764253.82,40241,10.31,73818.5,-8.93,-12.97,-13.11,0,*5E
1486764255.06,40242,10.31,73820.3,-8.93,-13.01,-13.11,0,*53
1486764256.29,40243,10.31,73818.3,-8.95,-13.11,-13.23,0,*54
1486764257.52,40244,10.31,73816.3,-8.95,-13.15,-13.15,0,*52
1486764258.75,40245,10.31,73816.0,-8.93,-13.01,-13.11,0,*54
1486764260.01,40246,10.31,73820.8,-8.93,-13.01,-13.01,0,*56
1486764261.25,40247,10.31,73818.8,-8.93,-13.01,-13.11,0,*56
1486764262.46,40248,10.31,73820.8,-8.93,-13.11,-13.15,0,*5C
1486764263.69,40249,10.31,73818.3,-8.95,-13.11,-13.15,0,*5B
1486764264.89,40250,10.31,73820.8,-8.93,-13.11,-13.15,0,*55
1486764266.1,40251,10.31,73818.3,-8.93,-13.11,-13.11,0,*50
1486764267.31,40252,10.31,73820.8,-8.93,-13.11,-13.11,0,*53
1486764268.57,40253,10.31,73820.3,-8.95,-13.01,-13.15,0,*51
1486764269.83,40254,10.31,73820.0,-8.95,-13.01,-13.11,0,*52
1486764271.09,40255,10.31,73816.0,-8.95,-13.01,-13.11,0,*53
1486764272.32,40256,10.31,73822.8,-8.95,-13.11,-13.23,0,*50
1486764273.56,40257,10.31,73822.3,-8.95,-13.11,-13.23,0,*51
1486764274.79,40258,10.31,73820.0,-8.95,-13.11,-13.15,0,*5B
1486764276.02,40259,10.31,73822.5,-8.95,-13.11,-13.15,0,*5A
1486764277.25,40260,10.31,73816.5,-8.95,-13.15,-13.23,0,*51
1486764278.48,40261,10.31,73816.3,-8.95,-13.15,-13.23,0,*50
1486764279.71,40262,10.31,73822.0,-8.95,-13.15,-13.23,0,*53
1486764280.94,40263,10.31,73820.8,-8.95,-13.15,-13.23,0,*52
1486764282.17,40264,10.31,73822.0,-8.95,-13.15,-13.23,0,*55
1486764283.41,40265,10.31,73822.8,-8.97,-13.19,-13.29,0,*50
1486764284.64,40266,10.31,73816.8,-8.95,-13.15,-13.23,0,*57
1486764285.87,40267,10.31,73822.0,-8.95,-13.15,-13.23,0,*56
1486764287.11,40268,10.31,73820.8,-8.95,-13.23,-13.23,0,*5C
1486764288.37,40269,10.31,73818.0,-8.97,-13.29,-13.29,0,*5F
1486764289.63,40270,10.31,73818.5,-8.97,-13.29,-13.33,0,*5C
1486764290.89,40271,10.31,73822.8,-8.95,-13.23,-13.29,0,*5E
1486764292.13,40272,10.31,73812.8,-8.93,-13.23,-13.29,0,*5B
1486764293.39,40273,10.31,73816.5,-8.95,-13.23,-13.37,0,*53
1486764294.67,40274,10.31,73820.8,-8.95,-13.29,-13.37,0,*5E
1486764295.9,40275,10.31,73822.0,-8.97,-13.29,-13.43,0,*5E
1486764297.11,40276,10.31,73818.5,-8.97,-13.43,-13.43,0,*51
1486764298.37,40277,10.31,73818.0,-8.97,-13.33,-13.33,0,*50
1486764299.63,40278,10.31,73814.3,-8.95,-13.23,-13.29,0,*57
1486764300.87,40279,10.31,73814.3,-8.95,-13.23,-13.23,0,*5C
1486764302.15,40280,10.31,73816.3,-8.95,-13.29,-13.29,0,*5A
1486764303.38,40281,10.31,73816.5,-8.97,-13.29,-13.43,0,*55
1486764304.65,40282,10.31,73818.3,-8.97,-13.29,-13.33,0,*51
1486764305.88,40283,10.31,73816.8,-8.97,-13.29,-13.43,0,*57
1486764307.11,40284,10.31,73814.0,-8.97,-13.29,-13.43,0,*50
1486764308.38,40285,10.31,73812.5,-8.97,-13.29,-13.33,0,*56
1486764309.59,40286,10.31,73820.3,-8.97,-13.15,-13.19,0,*52
1486764310.82,40287,10.31,73814.5,-8.97,-13.15,-13.29,0,*50
1486764312.03,40288,10.31,73814.8,-8.97,-13.15,-13.19,0,*5C
1486764313.26,40289,10.31,73812.8,-8.95,-13.11,-13.15,0,*57
1486764314.49,40290,10.31,73818.8,-8.95,-13.11,-13.15,0,*5F
1486764315.75,40291,10.31,73818.8,-8.95,-13.01,-13.11,0,*5B
1486764316.96,40292,10.31,73814.5,-8.97,-13.19,-13.15,0,*57
1486764318.17,40293,10.31,73816.5,-8.97,-13.19,-13.15,0,*56
1486764319.38,40294,10.31,73814.3,-8.97,-13.15,-13.15,0,*5D
1486764320.62,40295,10.31,73816.3,-8.99,-13.19,-13.19,0,*52
1486764321.85,40296,10.31,73814.0,-8.95,-13.15,-13.15,0,*5D
1486764323.08,40297,10.31,73814.5,-8.95,-13.11,-13.15,0,*58
1486764324.3,40298,10.31,73814.5,-8.97,-13.19,-13.19,0,*51
1486764325.54,40299,10.31,73810.5,-8.99,-13.19,-13.19,0,*5E
1486764326.77,40300,10.31,73814.8,-8.97,-13.15,-13.29,0,*5E
1486764328.01,40301,10.31,73810.3,-8.95,-12.97,-13.11,0,*5D
1486764329.22,40302,10.31,73812.5,-8.97,-13.07,-13.19,0,*5C
1486764330.42,40303,10.31,73816.8,-8.97,-13.15,-13.15,0,*52
1486764331.69,40304,10.31,73816.3,-8.97,-13.01,-13.29,0,*5F
1486764332.9,40305,10.31,73814.5,-8.97,-13.07,-13.19,0,*5B
1486764334.11,40306,10.31,73812.8,-8.97,-13.07,-13.15,0,*54
1486764335.31,40307,10.31,73820.0,-8.97,-13.15,-13.15,0,*56
1486764336.54,40308,10.31,73818.0,-8.97,-13.15,-13.29,0,*56
1486764337.78,40309,10.31,73814.3,-8.97,-13.19,-13.33,0,*50
1486764339.04,40310,10.31,73818.3,-8.99,-13.19,-13.33,0,*56
1486764340.26,40311,10.31,73812.3,-8.97,-13.15,-13.19,0,*5D
1486764341.49,40312,10.31,73816.5,-8.97,-13.15,-13.29,0,*5D
1486764342.72,40313,10.31,73814.8,-8.97,-13.07,-13.29,0,*5F
1486764343.95,40314,10.31,73812.5,-8.95,-13.11,-13.23,0,*57
1486764345.18,40315,10.31,73814.5,-8.95,-13.15,-13.23,0,*52
1486764346.42,40316,10.31,73814.5,-8.95,-13.11,-13.23,0,*55
1486764347.63,40317,10.31,73818.0,-8.97,-13.11,-13.23,0,*56
1486764348.86,40318,10.31,73818.8,-8.95,-13.15,-13.23,0,*5F
1486764350.09,40319,10.31,73812.0,-8.95,-13.15,-13.23,0,*5E
1486764351.32,40320,10.31,73814.0,-8.95,-13.15,-13.23,0,*54
1486764352.56,40321,10.31,73812.0,-8.97,-13.19,-13.33,0,*5A
1486764353.8,40322,10.31,73812.0,-8.97,-13.19,-13.33,0,*59
1486764355.04,40323,10.31,73814.8,-8.97,-13.19,-13.33,0,*58
1486764356.3,40324,10.31,73814.0,-8.97,-13.29,-13.33,0,*5C
1486764357.53,40325,10.31,73812.5,-8.97,-13.33,-13.43,0,*51
1486764358.76,40326,10.31,73812.3,-8.97,-13.29,-13.47,0,*5D
1486764360.01,40327,10.31,73812.0,-8.99,-13.33,-13.47,0,*59
1486764361.24,40328,10.31,73814.8,-8.97,-13.33,-13.43,0,*5C
1486764362.5,40329,10.31,73814.3,-8.95,-13.29,-13.43,0,*54
1486764363.71,40330,10.31,73814.8,-8.97,-13.43,-13.51,0,*51
1486764364.97,40331,10.31,73814.5,-8.95,-13.37,-13.43,0,*52
1486764366.22,40332,10.31,73814.8,-8.95,-13.37,-13.47,0,*55
1486764367.43,40333,10.31,73814.0,-8.97,-13.47,-13.51,0,*56
1486764368.63,40334,10.31,73814.3,-8.97,-13.43,-13.47,0,*52
1486764369.84,40335,10.31,73814.5,-8.97,-13.43,-13.51,0,*54
1486764371.08,40336,10.31,73816.8,-8.97,-13.29,-13.51,0,*5B
1486764372.33,40337,10.31,73814.8,-8.99,-13.29,-13.47,0,*53
1486764373.58,40338,10.31,73814.8,-8.99,-13.33,-13.47,0,*57
1486764374.79,40339,10.31,73814.3,-8.97,-13.47,-13.51,0,*5C
1486764376.02,40340,10.31,73820.0,-8.99,-13.43,-13.51,0,*58
1486764377.25,40341,10.31,73814.8,-8.97,-13.47,-13.61,0,*50
1486764378.51,40342,10.31,73818.5,-8.99,-13.47,-13.61,0,*5D
1486764379.72,40343,10.31,73818.8,-8.97,-13.47,-13.51,0,*51
1486764380.95,40344,10.31,73818.0,-8.99,-13.43,-13.51,0,*5C
1486764382.17,40345,10.31,73820.5,-8.97,-13.51,-13.51,0,*50
1486764383.38,40346,10.31,73816.0,-8.97,-13.43,-13.51,0,*50
1486764384.61,40347,10.31,73820.0,-8.97,-13.33,-13.43,0,*55
1486764385.9,40348,10.31,73820.8,-8.99,-13.29,-13.33,0,*58
1486764387.13,40349,10.31,73818.3,-8.97,-13.33,-13.43,0,*5B
1486764388.35,40350,10.38,73826.0,-8.99,-13.43,-13.47,0,*5E
1486764389.59,40351,10.31,73822.0,-8.97,-13.33,-13.51,0,*51
1486764390.81,40352,10.31,73820.8,-8.99,-13.43,-13.47,0,*5C
1486764392.07,40353,10.31,73822.0,-8.99,-13.33,-13.43,0,*5E
1486764393.32,40354,10.31,73822.0,-8.99,-13.33,-13.51,0,*5A
1486764394.56,40355,10.31,73820.5,-8.99,-13.43,-13.51,0,*5C
1486764395.82,40356,10.31,73822.8,-8.99,-13.33,-13.51,0,*58
1486764397.07,40357,10.31,73818.5,-8.99,-13.33,-13.43,0,*5A
1486764398.33,40358,10.31,73822.8,-8.97,-13.29,-13.33,0,*57
1486764399.6,40359,10.31,73816.3,-8.97,-13.29,-13.33,0,*56
1486764400.88,40360,10.31,73816.5,-8.99,-13.29,-13.33,0,*52
1486764402.15,40361,10.31,73818.8,-8.99,-13.19,-13.33,0,*50
1486764403.41,40362,10.31,73822.3,-8.99,-13.19,-13.33,0,*53
1486764404.66,40363,10.31,73826.8,-8.99,-13.29,-13.43,0,*56
1486764405.92,40364,10.31,73820.8,-8.99,-13.33,-13.47,0,*5E
1486764407.14,40365,10.31,73822.0,-8.97,-13.33,-13.47,0,*51
1486764408.4,40366,10.31,73820.8,-8.99,-13.29,-13.43,0,*53
1486764409.68,40367,10.31,73820.0,-8.99,-13.29,-13.33,0,*55
1486764410.97,40368,10.31,73824.8,-8.99,-13.29,-13.33,0,*5A
1486764412.23,40369,10.31,73820.3,-8.97,-13.29,-13.33,0,*55
1486764413.52,40370,10.31,73820.0,-8.99,-13.33,-13.33,0,*58
1486764414.77,40371,10.31,73824.0,-8.99,-13.29,-13.43,0,*55
1486764416.06,40372,10.31,73824.3,-8.99,-13.33,-13.33,0,*5A
1486764417.32,40373,10.31,73822.0,-8.99,-13.19,-13.33,0,*53
1486764418.56,40374,10.31,73822.3,-8.97,-13.19,-13.33,0,*5A
1486764419.8,40375,10.31,73820.0,-8.97,-13.19,-13.33,0,*5B
1486764421.06,40376,10.31,73820.8,-8.99,-13.19,-13.29,0,*5D
1486764422.3,40377,10.31,73818.8,-8.97,-13.19,-13.29,0,*52
1486764423.55,40378,10.31,73822.3,-8.99,-13.29,-13.43,0,*5C
1486764424.79,40379,10.31,73822.5,-8.97,-13.29,-13.43,0,*53
1486764426.02,40380,10.31,73822.5,-8.97,-13.33,-13.43,0,*5E
1486764427.25,40381,10.31,73816.8,-8.97,-13.29,-13.43,0,*54
1486764428.54,40382,10.31,73822.3,-8.99,-13.29,-13.33,0,*5E
1486764429.8,40383,10.31,73822.3,-8.97,-13.29,-13.33,0,*51
1486764431.03,40384,10.31,73822.0,-8.97,-13.29,-13.43,0,*51
1486764432.28,40385,10.31,73820.5,-8.99,-13.33,-13.43,0,*55
1486764433.52,40386,10.31,73818.0,-8.99,-13.43,-13.51,0,*52
1486764434.73,40387,10.31,73822.0,-8.97,-13.43,-13.51,0,*5D
1486764435.96,40388,10.31,73822.3,-8.99,-13.47,-13.51,0,*58
1486764437.19,40389,10.31,73816.8,-8.99,-13.47,-13.51,0,*59
1486764438.42,40390,10.31,73822.3,-8.99,-13.43,-13.51,0,*55
1486764439.65,40391,10.31,73822.5,-8.99,-13.47,-13.47,0,*57
1486764440.9,40392,10.31,73814.3,-8.99,-13.33,-13.47,0,*57
1486764442.13,40393,10.31,73822.3,-8.99,-13.43,-13.51,0,*56
1486764443.37,40394,10.31,73826.0,-8.99,-13.51,-13.51,0,*52
1486764444.61,40395,10.31,73822.0,-8.99,-13.43,-13.51,0,*50
1486764445.84,40396,10.31,73818.5,-8.99,-13.43,-13.51,0,*53
1486764447.09,40397,10.31,73816.5,-8.99,-13.33,-13.43,0,*56
1486764448.38,40398,10.31,73818.8,-8.99,-13.29,-13.33,0,*55
1486764449.67,40399,10.31,73816.3,-8.99,-13.29,-13.33,0,*54
1486764450.92,40400,10.31,73812.0,-8.99,-13.33,-13.43,0,*5F
1486764452.15,40401,10.31,73816.0,-8.99,-13.43,-13.43,0,*59
1486764453.4,40402,10.31,73812.8,-8.99,-13.33,-13.43,0,*5D
1486764454.65,40403,10.31,73814.0,-8.99,-13.33,-13.47,0,*58
1486764455.9,40404,10.31,73814.8,-8.99,-13.33,-13.47,0,*5F
1486764457.15,40405,10.31,73812.3,-8.99,-13.33,-13.47,0,*5E
1486764458.4,40406,10.31,73818.5,-8.99,-13.33,-13.47,0,*5D
1486764459.63,40407,10.31,73820.3,-8.99,-13.43,-13.47,0,*5B
1486764460.86,40408,10.31,73818.5,-8.99,-13.43,-13.47,0,*54
1486764462.14,40409,10.31,73818.3,-8.99,-13.33,-13.33,0,*51
1486764463.37,40410,10.31,73814.3,-8.99,-13.43,-13.51,0,*5A
1486764464.58,40411,10.31,73818.8,-8.97,-13.43,-13.47,0,*52
1486764465.8,40412,10.31,73818.0,-8.99,-13.43,-13.47,0,*5F
1486764467.06,40413,10.31,73814.8,-8.99,-13.33,-13.51,0,*5E
1486764468.31,40414,10.31,73814.5,-8.99,-13.33,-13.47,0,*5E
1486764469.53,40415,10.31,73816.8,-8.99,-13.47,-13.47,0,*5C
1486764470.79,40416,10.31,73816.0,-8.99,-13.47,-13.61,0,*5B
1486764472.03,40417,10.31,73816.5,-9.03,-13.51,-13.65,0,*5B
1486764473.29,40418,10.31,73816.8,-8.99,-13.47,-13.61,0,*55
1486764474.51,40419,10.31,73812.8,-8.99,-13.43,-13.47,0,*54
1486764475.8,40420,10.31,73820.0,-8.99,-13.33,-13.33,0,*5A
1486764477.05,40421,10.31,73816.3,-8.99,-13.29,-13.43,0,*57
1486764478.34,40422,10.31,73818.5,-9.03,-13.37,-13.37,0,*5A
1486764479.6,40423,10.31,73822.5,-9.03,-13.37,-13.47,0,*5C
1486764480.88,40424,10.31,73814.0,-9.03,-13.37,-13.37,0,*5C
1486764482.15,40425,10.31,73816.8,-9.03,-13.37,-13.51,0,*5D
1486764483.41,40426,10.31,73816.5,-9.03,-13.37,-13.51,0,*5E
1486764484.64,40427,10.31,73818.0,-9.03,-13.47,-13.51,0,*58
1486764485.88,40428,10.31,73814.8,-9.05,-13.37,-13.51,0,*56
1486764487.12,40429,10.31,73816.0,-9.03,-13.47,-13.51,0,*56
1486764488.37,40430,10.31,73816.0,-9.03,-13.37,-13.47,0,*5E
1486764489.63,40431,10.31,73812.8,-9.03,-13.33,-13.55,0,*58
1486764490.85,40432,10.31,73812.8,-9.05,-13.51,-13.55,0,*59
1486764492.11,40433,10.31,73818.5,-9.03,-13.33,-13.51,0,*5E
1486764493.37,40434,10.31,73816.5,-9.03,-13.33,-13.47,0,*5E
1486764494.65,40435,10.31,73812.3,-9.03,-13.33,-13.37,0,*58
1486764495.91,40436,10.31,73816.0,-9.03,-13.23,-13.37,0,*5A